This is the latest recevied weather packets stored in our database for station/object KD7KCN-5. If no packets are shown the sender has not sent any weather packets the latest 10 day(s).
| Time | Temp. | Humidity | Pressure | Rain* | Wind** | Luminosity | Snow |
|---|---|---|---|---|---|---|---|
| 1777850513 | 22.22° C | 20% | 1009.1 hPa | 0 mm | - | 570 W/m² | - |
| 1777849914 | 21.67° C | 19% | 1009.3 hPa | 0 mm | - | 246 W/m² | - |
| 1777849313 | 21.11° C | 18% | 1009.3 hPa | 0 mm | - | 244 W/m² | - |
| 1777848714 | 21.67° C | 19% | 1009.4 hPa | 0 mm | - | 132 W/m² | - |
| 1777848113 | 22.22° C | 17% | 1009.3 hPa | 0 mm | - | 121 W/m² | - |
| 1777847514 | 23.33° C | 16% | 1009.6 hPa | 0 mm | - | 663 W/m² | - |
| 1777846913 | 22.78° C | 16% | 1009.8 hPa | 0 mm | - | 735 W/m² | - |
| 1777846313 | 22.78° C | 16% | 1009.9 hPa | 0 mm | - | 707 W/m² | - |
| 1777845714 | 23.33° C | 17% | 1010.1 hPa | 0 mm | - | 714 W/m² | - |
| 1777845114 | 23.33° C | 18% | 1010.5 hPa | 0 mm | - | 728 W/m² | - |
| 1777844514 | 22.78° C | 17% | 1010.7 hPa | 0 mm | - | 758 W/m² | - |
| 1777843914 | 22.78° C | 17% | 1010.7 hPa | 0 mm | - | 851 W/m² | - |
| 1777843314 | 23.33° C | 17% | 1011.1 hPa | 0 mm | - | 872 W/m² | - |
| 1777842715 | 22.78° C | 17% | 1011.4 hPa | 0 mm | - | 867 W/m² | - |
| 1777842114 | 22.22° C | 18% | 1010.9 hPa | 0 mm | - | 865 W/m² | - |
| 1777841514 | 22.78° C | 17% | 1010.9 hPa | 0 mm | - | 907 W/m² | - |
| 1777840914 | 22.78° C | 17% | 1011.1 hPa | 0 mm | - | 902 W/m² | - |
| 1777840314 | 22.78° C | 18% | 1011.3 hPa | 0 mm | - | 923 W/m² | - |
| 1777839714 | 22.22° C | 17% | 1011.5 hPa | 0 mm | - | 933 W/m² | - |
| 1777839114 | 21.67° C | 18% | 1011.5 hPa | 0 mm | - | 923 W/m² | - |
| 1777838516 | 22.78° C | 16% | 1011.6 hPa | 0 mm | - | 949 W/m² | - |
| 1777835514 | 21.67° C | 19% | 1012.7 hPa | 0 mm | - | 979 W/m² | - |
| 1777834914 | 22.22° C | 18% | 1012.4 hPa | 0 mm | - | 988 W/m² | - |
| 1777834314 | 22.22° C | 17% | 1012.8 hPa | 0 mm | - | 1007 W/m² | - |
| 1777833714 | 21.67° C | 19% | 1013.1 hPa | 0 mm | - | 1092 W/m² | - |
* Rain latest hour (hover to see other rain measurements)
** Current wind speed in m/s (hover to see current wind gust speed)